Weather History for KNYL - February, 2013

Change the Weather History Date:

Tuesday, February 26, 2013

  Actual Average Record
Temperature  
Mean Temperature 57 °F 64 °F  
Max Temperature 73 °F 76 °F 96 °F (1986)
Min Temperature 41 °F 52 °F 32 °F (1912)
Degree Days  
Heating Degree Days 8 3  
Month to date heating degree days 161 108  
Since 1 July heating degree days 682 616  
Cooling Degree Days 0 2  
Month to date cooling degree days 8 30  
Year to date cooling degree days 11 36  
Growing Degree Days 8 (Base 50)    
Moisture  
Dew Point 13 °F    
Average Humidity 26    
Maximum Humidity 43    
Minimum Humidity 8    
Precipitation  
Precipitation 0.00 in 0.01 in 0.26 in (1987)
Month to date precipitation 0.01 0.36  
Year to date precipitation 1.03 0.73  
Sea Level Pressure  
Sea Level Pressure 30.03 in    
Wind  
Wind Speed 8 mph (North)    
Max Wind Speed 21 mph    
Max Gust Speed 26 mph    
Visibility 10 miles    
Events      
T = Trace of Precipitation, MM = Missing Value Source: NWS Daily Summary

Daily Weather History Graph

Daily Weather History Graph

Search for Another Location

Airport or City:

Trip Planner

Search our weather history database for the weather conditions in past years. The results will help you decide how hot, cold, wet, or windy it might be!

Date:

Astronomy

Feb. 26, 2013 Rise Set
Actual Time 7:09 AM MST 6:33 PM MST
Civil Twilight 6:44 AM MST 6:58 PM MST
Nautical Twilight 6:15 AM MST 7:27 PM MST
Astronomical Twilight 5:47 AM MST 7:55 PM MST
Moon 7:47 PM MST (2/26) 7:19 AM MST (2/26)
Length of Visible Light 12h 13m
Length of Day
11h 24m
Full, 99% of the Moon is Illuminated
Feb 26
Full
Mar 4
Last Quarter
Mar 11
New
Mar 19
First Quarter
Mar 27
Full

Hourly Weather History & Observations

Time (MST) Temp. Windchill Dew Point Humidity Pressure Visibility Wind Dir Wind Speed Gust Speed Precip Events Conditions
12:55 AM 51.1 °F - 15.1 °F 24% 30.02 in 10.0 mi SE 4.6 mph - N/A   Clear
1:55 AM 48.0 °F - 18.0 °F 30% 30.01 in 10.0 mi Calm Calm - N/A   Clear
2:55 AM 46.0 °F 43.9 °F 19.9 °F 35% 29.99 in 10.0 mi NNE 4.6 mph - N/A   Clear
3:55 AM 45.0 °F - 19.0 °F 36% 29.98 in 10.0 mi Calm Calm - N/A   Clear
4:55 AM 45.0 °F 43.5 °F 19.0 °F 36% 29.98 in 10.0 mi NNE 3.5 mph - N/A   Clear
5:55 AM 44.1 °F - 19.0 °F 37% 29.98 in 10.0 mi Calm Calm - N/A   Clear
6:55 AM 43.0 °F - 21.0 °F 42% 30.00 in 10.0 mi Calm Calm - N/A   Clear
7:55 AM 45.0 °F 43.5 °F 19.0 °F 36% 30.02 in 10.0 mi NNE 3.5 mph - N/A   Partly Cloudy
8:55 AM 50.0 °F - 18.0 °F 28% 30.04 in 10.0 mi NNE 9.2 mph - N/A   Partly Cloudy
9:55 AM 57.0 °F - 19.0 °F 23% 30.05 in 10.0 mi NE 4.6 mph - N/A   Partly Cloudy
10:55 AM 63.0 °F - 16.0 °F 16% 30.06 in 10.0 mi North 11.5 mph - N/A   Clear
11:55 AM 66.0 °F - 12.9 °F 13% 30.06 in 7.0 mi North 12.7 mph 19.6 mph N/A   Partly Cloudy
12:55 PM 68.0 °F - 12.9 °F 12% 30.05 in 7.0 mi North 12.7 mph 19.6 mph N/A   Partly Cloudy
1:55 PM 71.1 °F - 12.9 °F 11% 30.02 in 10.0 mi North 11.5 mph 20.7 mph N/A   Partly Cloudy
2:55 PM 72.0 °F - 10.0 °F 9% 30.01 in 10.0 mi NNE 19.6 mph 26.5 mph N/A   Partly Cloudy
3:55 PM 72.0 °F - 10.0 °F 9% 30.01 in 10.0 mi North 11.5 mph 23.0 mph N/A   Partly Cloudy
4:55 PM 72.0 °F - 9.0 °F 9% 30.01 in 10.0 mi North 11.5 mph 20.7 mph N/A   Partly Cloudy
5:00 PM - - - N/A% - - North - - N/A   Unknown
5:55 PM 69.1 °F - 7.0 °F 9% 30.01 in 10.0 mi North 11.5 mph 19.6 mph N/A   Partly Cloudy
6:55 PM 66.0 °F - 6.1 °F 9% 30.03 in 10.0 mi North 10.4 mph - N/A   Partly Cloudy
7:55 PM 63.0 °F - 8.1 °F 11% 30.05 in 10.0 mi NNW 8.1 mph - N/A   Partly Cloudy
8:55 PM 61.0 °F - 9.0 °F 13% 30.07 in 10.0 mi North 9.2 mph - N/A   Partly Cloudy
9:55 PM 61.0 °F - 7.0 °F 12% 30.09 in 10.0 mi NNW 11.5 mph - N/A   Partly Cloudy
10:55 PM 59.0 °F - 7.0 °F 13% 30.11 in 10.0 mi North 13.8 mph 19.6 mph N/A   Partly Cloudy
11:55 PM 59.0 °F - 6.1 °F 12% 30.12 in 10.0 mi NNW 10.4 mph - N/A   Partly Cloudy